Temp
51 53 55 58 61 63 64 65 66 66 66 66 65 64 63 62 62 61 60 60 60 60 60 60 60 60 60 60 59 59 58 57 54 58 57 52 48 46 43 45 44 44 43
47 48 51 55 57 59 62 64 65 65 67 66 65 65 64 63 62 61 59 60 59 59 60 60 59 60 59 60 60 58 58 59 56 54 58 48 49 47 46 43 42 42 42
44 45 47 49 51 53 56 59 62 64 65 66 66 65 64 64 63 62 61 61 60 60 61 60 60 60 58 59 59 59 58 58 58 55 55 45 43 42 40 39 40 40 40
41 42 43 44 47 48 50 53 56 59 62 64 65 65 65 65 63 62 61 61 61 60 59 59 59 59 59 59 58 58 58 56 56 54 53 41 40 36 36 36 35 35 36
38 39 40 42 43 42 43 45 48 52 56 59 61 63 64 63 63 62 61 60 59 59 59 60 60 58 51 56 59 58 57 55 53 52 40 36 36 34 38 37 39 35 35
35 36 37 37 37 37 38 38 41 44 49 53 55 58 60 61 55 50 56 60 59 59 59 59 60 47 49 47 48 51 57 56 54 52 50 46 39 38 36 37 36 34 34
33 34 34 33 33 34 34 35 36 39 43 46 49 53 56 59 52 49 47 59 60 59 59 59 58 58 49 56 49 47 48 50 54 53 51 46 43 40 38 35 35 35 36
28 30 30 28 30 31 32 33 34 36 37 40 44 48 51 55 50 49 45 55 59 60 60 59 58 58 56 54 55 52 52 53 52 52 54 51 51 44 44 43 39 35 33
25 25 25 26 27 28 29 31 33 34 35 37 40 42 45 48 47 47 46 54 55 57 59 60 58 57 52 46 52 49 48 48 45 46 48 48 46 44 41 37 35 35 31
21 21 23 25 25 25 27 30 33 34 34 35 35 38 40 43 45 45 46 51 52 52 52 53 43 54 48 45 51 47 43 43 37 36 37 40 41 40 40 42 37 36 31
20 21 22 23 22 24 26 29 32 34 34 34 35 37 39 41 43 43 44 46 49 50 49 49 47 44 45 44 47 48 46 43 40 38 37 36 35 36 37 36 39 40 33
18 18 18 18 21 24 23 27 31 34 33 34 34 36 39 40 39 42 42 43 46 46 47 47 46 42 43 44 45 49 45 40 38 37 36 35 35 35 35 35 34 34 34
13 13 15 18 20 22 23 25 28 33 33 33 34 34 36 39 40 40 41 41 41 41 45 46 43 42 42 43 43 44 38 38 36 35 36 36 36 36 34 33 33 33 32
10 13 15 17 18 21 24 27 28 30 32 33 33 33 35 36 38 39 37 39 37 39 40 41 40 41 42 43 38 39 40 38 38 38 37 36 34 33 33 33 31 31 30
11 13 14 16 17 20 22 23 26 29 32 31 33 34 33 33 36 39 38 38 38 39 35 34 35 35 36 35 36 36 36 36 36 36 35 33 33 33 32 32 31 31 29
8 11 13 15 16 18 19 20 27 29 32 34 37 36 36 37 38 39 39 39 40 40 35 35 36 36 36 35 35 34 35 35 36 35 34 34 33 33 31 31 31 31 30
6 10 12 13 14 15 15 16 16 22 28 31 32 31 31 29 32 35 38 39 39 39 35 36 36 35 36 35 35 35 34 35 35 35 34 34 33 33 31 30 30 30 28
6 10 11 11 12 13 13 14 15 15 15 17 24 26 27 28 31 35 37 38 35 36 35 34 34 34 35 35 35 34 34 33 34 34 34 33 33 32 31 30 29 29 27
6 7 9 10 11 12 12 13 13 13 13 14 16 19 22 24 26 26 27 30 34 33 33 34 33 33 34 34 34 34 33 33 33 33 33 33 33 32 31 30 30 29 28
4 6 7 7 8 9 10 9 10 10 10 11 12 12 17 16 14 14 16 17 17 18 25 33 33 33 33 33 33 33 33 33 33 33 33 33 33 33 32 30 29 27 26
2 3 5 5 5 6 6 6 7 7 7 8 9 12 19 12 11 11 12 12 13 14 15 18 22 32 32 33 33 33 33 33 33 33 33 33 32 31 32 30 29 27 25
0 1 1 2 3 3 3 4 5 5 5 5 6 8 14 10 10 10 10 11 12 13 14 14 16 20 21 29 32 32 32 32 32 33 32 31 30 30 28 26 25 24 21
-1 -2 -2 -1 -0 0 -0 1 1 1 1 2 3 4 5 5 6 7 7 8 10 11 12 12 13 13 16 18 20 26 31 32 31 31 29 28 27 25 25 23 21 20 19
-4 -4 -5 -4 -3 -4 -4 -4 -3 -2 -2 -1 -1 0 1 2 3 3 2 4 6 8 10 11 10 10 11 13 15 17 20 23 26 27 27 25 24 23 23 21 20 20 19
-8 -7 -7 -7 -7 -7 -7 -7 -6 -6 -5 -5 -4 -4 -3 -1 -0 -1 -0 -0 1 2 4 8 9 9 9 10 12 14 15 16 19 22 23 23 21 21 20 19 18 17 15
-11 -10 -10 -10 -10 -10 -10 -10 -10 -9 -9 -8 -7 -7 -6 -5 -4 -5 -3 -5 -4 -1 -1 3 5 7 9 9 11 13 15 19 15 16 17 18 17 16 17 16 15 14 13
MSLP
1013.47 1012.87 1011.54 1010.74 1009.87 1009.29 1008.92 1008.47 1008.06 1007.88 1007.93 1007.84 1007.83 1007.84 1007.80 1008.10 1008.37 1008.83 1008.83 1008.98 1009.21 1009.48 1009.80 1009.92 1009.94 1010.38 1010.59 1010.92 1011.22 1011.56 1011.93 1012.35 1012.09 1011.83 1012.25 1012.58 1013.19 1013.61 1014.34 1014.14 1014.52 1014.87 1015.46
1014.63 1013.85 1012.67 1011.47 1010.51 1009.98 1009.18 1008.47 1007.81 1007.25 1006.94 1006.82 1006.68 1006.59 1006.62 1006.75 1006.93 1007.39 1007.58 1007.53 1007.69 1007.75 1008.05 1008.42 1008.31 1008.93 1009.09 1009.43 1009.67 1009.93 1010.31 1010.77 1011.12 1011.14 1011.54 1012.29 1012.64 1013.03 1013.45 1013.89 1014.25 1014.59 1014.90
1015.39 1014.42 1013.36 1012.46 1011.55 1010.79 1009.89 1008.95 1008.09 1007.09 1006.37 1005.97 1005.74 1005.55 1005.48 1005.41 1005.61 1005.77 1005.80 1005.94 1006.13 1006.10 1006.21 1006.53 1006.71 1007.32 1007.51 1007.72 1007.98 1008.42 1008.79 1009.24 1009.50 1010.07 1010.61 1011.44 1012.11 1012.54 1013.37 1013.80 1014.05 1014.63 1014.70
1016.17 1015.21 1014.32 1013.44 1012.62 1011.80 1010.88 1009.64 1008.49 1007.39 1006.51 1005.56 1004.93 1004.42 1004.30 1004.14 1004.19 1004.23 1004.53 1004.23 1004.45 1004.78 1004.70 1004.79 1004.93 1005.19 1005.55 1006.04 1006.56 1006.79 1007.42 1007.95 1008.40 1008.82 1009.65 1010.75 1011.35 1012.22 1012.43 1013.20 1013.98 1014.19 1014.40
1017.07 1015.87 1015.04 1014.23 1013.53 1012.69 1011.65 1010.42 1009.26 1007.96 1006.60 1005.66 1004.69 1003.74 1003.41 1003.15 1002.97 1003.11 1003.35 1003.26 1003.15 1003.17 1003.46 1003.51 1003.52 1003.78 1004.11 1004.46 1004.92 1005.26 1005.80 1006.28 1006.78 1008.16 1008.72 1009.84 1010.74 1011.71 1011.66 1011.94 1012.55 1013.28 1013.78
1017.65 1016.60 1015.59 1014.68 1013.94 1013.21 1012.09 1011.07 1009.87 1008.43 1006.97 1005.90 1004.69 1004.00 1003.10 1002.34 1001.95 1002.10 1002.25 1002.19 1002.11 1002.08 1002.13 1002.12 1002.14 1002.49 1002.88 1003.28 1003.59 1003.72 1004.03 1004.47 1005.28 1006.10 1007.10 1007.83 1008.78 1009.35 1009.99 1010.70 1011.80 1012.69 1013.66
1017.91 1016.89 1015.89 1015.18 1014.57 1013.78 1012.70 1011.48 1010.25 1008.80 1007.40 1006.28 1005.07 1003.93 1002.70 1001.75 1001.32 1001.49 1001.70 1001.49 1001.07 1000.81 1000.74 1000.59 1000.59 1000.67 1001.35 1001.73 1002.40 1002.66 1002.79 1002.88 1003.31 1004.30 1005.29 1005.90 1006.60 1007.21 1008.08 1009.40 1010.07 1010.93 1011.50
1018.60 1017.57 1016.87 1015.90 1014.66 1013.60 1012.55 1011.24 1010.07 1008.84 1007.64 1006.46 1004.98 1003.79 1002.56 1001.37 1000.94 1000.74 1000.73 1000.40 1000.14 999.56 999.28 999.17 999.24 999.26 999.23 1000.26 1000.72 1001.21 1001.48 1001.78 1002.10 1002.60 1002.70 1003.65 1003.97 1004.99 1005.54 1006.30 1007.62 1009.69 1011.13
1018.57 1018.02 1017.28 1016.34 1014.87 1013.63 1012.26 1010.96 1009.98 1008.85 1007.53 1006.29 1005.27 1003.94 1002.64 1001.05 1000.74 1000.32 1000.36 999.86 998.99 998.24 998.12 997.71 997.87 998.01 998.02 999.03 999.49 999.78 1000.04 1000.56 1001.04 1001.14 1001.48 1002.00 1002.66 1003.06 1004.58 1006.09 1007.90 1009.16 1010.56
1019.24 1018.47 1017.65 1016.59 1015.45 1014.05 1012.71 1011.10 1009.70 1008.68 1007.09 1006.03 1004.60 1003.73 1002.44 1000.96 1000.43 1000.05 999.97 999.28 997.97 997.30 997.08 996.85 997.16 997.14 996.89 997.73 998.32 998.65 998.96 999.62 1000.70 1001.10 1001.40 1001.81 1001.97 1002.84 1003.55 1003.91 1005.45 1007.09 1008.81
1019.90 1018.98 1017.81 1016.79 1015.63 1014.31 1012.75 1011.33 1009.63 1007.92 1006.65 1005.47 1004.04 1002.76 1001.74 1000.98 999.90 999.39 999.14 998.66 997.45 996.65 996.14 995.84 996.14 996.19 996.21 996.57 996.77 997.11 997.01 997.85 999.08 999.82 1000.51 1000.89 1001.89 1002.53 1003.16 1003.88 1004.36 1005.05 1006.86
1020.31 1019.09 1017.81 1016.75 1015.59 1014.11 1012.65 1010.81 1009.20 1007.82 1006.27 1004.90 1003.64 1002.10 1001.09 1000.15 999.55 998.91 998.50 997.99 997.33 996.50 995.43 995.19 994.85 995.33 995.27 995.40 995.77 995.46 995.86 996.97 998.19 999.65 1000.39 1000.93 1001.17 1002.18 1002.74 1003.59 1004.25 1004.97 1005.68
1020.38 1019.07 1017.65 1016.37 1015.31 1014.12 1012.57 1010.85 1009.13 1007.40 1005.89 1004.40 1003.23 1001.78 1000.50 999.76 999.04 998.42 997.89 997.17 996.68 995.84 995.05 994.62 994.37 994.28 994.25 994.63 994.47 994.57 995.35 996.36 997.33 998.67 999.29 999.80 1000.21 1000.91 1002.29 1003.41 1004.50 1005.24 1006.02
1020.20 1018.78 1017.37 1016.16 1014.74 1013.64 1012.22 1010.63 1008.93 1007.22 1005.56 1004.29 1002.87 1001.50 1000.16 999.27 998.79 998.34 997.69 996.78 996.14 995.29 994.71 994.33 994.26 993.92 993.74 993.69 994.07 994.42 994.84 995.17 995.90 996.88 997.85 998.84 999.65 1000.88 1001.60 1002.40 1003.85 1005.05 1006.24
1020.55 1018.82 1017.30 1016.34 1015.01 1013.47 1012.29 1010.94 1009.28 1007.76 1006.14 1004.33 1002.75 1001.55 1000.23 999.03 998.56 997.81 997.08 996.42 995.73 994.96 994.44 994.08 993.62 993.44 993.43 993.51 993.73 993.98 994.34 994.87 995.57 996.25 997.19 997.94 999.11 999.83 1000.60 1001.69 1002.78 1004.18 1005.01
1020.94 1019.26 1017.63 1016.58 1015.55 1013.90 1012.48 1010.43 1009.39 1007.72 1006.00 1004.21 1002.29 1001.12 999.71 998.58 997.57 996.80 995.98 995.48 994.84 994.40 993.95 993.55 993.11 992.84 992.64 992.91 993.25 993.63 993.88 994.19 994.71 995.35 996.02 996.66 997.46 998.72 999.93 1001.06 1001.91 1002.88 1003.90
1021.44 1019.96 1018.51 1016.99 1016.23 1014.47 1013.09 1011.50 1009.45 1007.25 1006.17 1004.48 1002.95 1001.56 1000.13 999.44 997.70 996.34 995.23 994.49 993.96 993.80 993.21 993.13 992.86 992.61 992.38 992.43 992.75 992.74 992.94 993.35 993.94 994.46 995.15 995.90 996.86 997.89 999.00 999.95 1000.85 1001.85 1002.98
1021.29 1020.12 1019.59 1017.63 1016.81 1015.44 1014.05 1012.54 1011.11 1009.46 1007.46 1005.77 1004.22 1002.89 1001.35 999.61 997.72 996.22 995.07 993.91 993.34 993.05 992.98 992.87 992.71 992.53 992.43 992.36 992.21 992.21 992.61 992.88 993.29 993.74 994.49 995.17 995.87 996.71 998.04 999.08 999.93 1000.78 1002.03
1021.48 1020.47 1019.72 1018.21 1017.12 1016.35 1014.90 1013.47 1012.01 1010.72 1009.40 1007.71 1005.78 1003.85 1002.24 1000.90 999.43 997.97 996.50 995.22 994.03 993.45 992.96 992.63 992.49 992.44 992.39 992.05 991.87 992.03 992.26 992.32 992.53 993.13 993.78 994.37 995.02 995.75 996.77 997.56 998.51 999.85 1000.81
1021.70 1020.88 1020.11 1018.55 1017.42 1016.78 1015.80 1014.48 1013.02 1011.69 1010.46 1009.13 1007.64 1006.10 1003.88 1002.39 1000.89 1000.21 999.60 998.69 997.37 996.31 995.17 993.40 992.62 992.17 991.85 991.77 991.70 991.66 991.80 992.05 992.39 992.71 993.16 993.64 994.30 994.91 995.68 996.74 997.45 998.51 999.80
1022.20 1021.01 1020.17 1019.16 1018.02 1017.45 1016.79 1015.62 1014.60 1013.12 1011.53 1010.40 1009.13 1007.83 1006.10 1004.92 1003.79 1002.86 1001.93 1001.02 999.93 998.62 997.38 996.08 994.59 992.59 991.98 991.88 991.71 991.52 991.41 991.37 991.63 992.04 992.51 992.89 993.55 994.67 995.28 996.29 997.05 998.20 999.42
1022.73 1021.65 1020.71 1019.50 1018.97 1018.17 1017.65 1016.65 1015.62 1014.44 1012.80 1011.56 1010.28 1008.90 1007.60 1006.65 1005.56 1004.62 1003.74 1002.84 1001.90 1000.80 999.61 998.07 996.67 995.64 994.67 993.20 991.88 991.36 991.24 991.33 991.40 991.45 992.06 992.38 992.93 994.12 994.74 995.67 996.73 997.82 999.18
1023.05 1022.38 1021.41 1020.30 1019.60 1018.97 1018.25 1017.39 1016.37 1015.34 1013.89 1013.07 1011.79 1010.28 1009.15 1008.24 1007.40 1006.38 1005.51 1004.54 1003.24 1001.93 1000.73 999.65 998.29 997.13 996.14 994.89 993.87 992.68 991.69 991.29 991.20 991.49 992.05 992.54 993.06 993.69 994.35 995.49 996.56 997.96 998.81
1023.37 1022.79 1022.05 1021.07 1020.40 1019.67 1018.91 1018.03 1017.08 1016.13 1015.07 1014.16 1013.02 1011.92 1010.93 1009.98 1008.93 1007.99 1007.22 1006.14 1004.75 1003.34 1002.20 1000.98 1000.00 999.22 997.92 996.78 995.72 994.61 993.71 992.83 992.35 992.23 992.34 992.65 993.22 993.88 994.48 995.37 996.43 997.61 998.94
1023.84 1023.21 1022.48 1021.75 1020.96 1020.23 1019.48 1018.67 1017.79 1016.97 1016.15 1015.21 1014.08 1013.18 1012.25 1011.26 1010.21 1009.32 1008.38 1007.47 1006.32 1005.08 1003.78 1002.50 1001.37 1000.32 999.11 998.50 997.56 996.43 995.47 994.57 993.83 993.35 993.29 993.45 993.76 994.19 994.71 995.68 996.68 998.02 999.30
1024.03 1023.42 1022.74 1022.01 1021.34 1020.73 1020.06 1019.31 1018.52 1017.70 1016.81 1015.87 1015.00 1014.14 1013.28 1012.29 1011.33 1010.55 1009.53 1008.67 1007.50 1006.26 1005.24 1003.90 1002.69 1001.47 1000.37 999.58 998.82 997.76 996.67 995.75 995.39 994.93 994.47 994.38 994.43 994.92 995.39 996.15 997.24 998.09 999.41
Wind_Speed
17 17 14 13 13 10 11 14 15 15 16 16 16 16 18 18 18 17 18 19 20 19 18 18 20 18 14 13 12 12 13 12 15 12 6 6 6 5 4 4 5 6 5
16 16 16 15 14 13 13 14 13 15 16 17 17 17 18 18 17 19 20 18 20 20 21 20 20 14 19 17 13 16 14 13 13 18 10 5 6 5 5 6 5 4 6
17 17 17 16 16 17 16 16 15 15 14 16 16 18 18 18 18 20 21 21 21 21 21 21 21 19 19 15 17 14 13 12 13 12 10 2 2 3 3 2 4 3 3
17 16 16 17 17 17 17 17 16 15 16 15 16 18 18 18 18 19 20 20 20 19 20 20 20 21 21 20 17 18 15 12 11 10 10 4 3 1 2 4 2 2 3
17 15 16 16 16 17 17 17 18 16 14 15 16 16 16 16 14 18 19 19 19 20 20 20 21 21 23 22 14 16 16 13 9 10 4 3 4 3 7 4 5 3 3
15 15 15 16 17 17 17 18 18 17 16 15 14 15 16 13 16 19 19 17 19 20 20 20 20 17 20 22 24 22 19 17 18 14 11 10 7 5 5 6 5 4 3
16 16 15 17 17 17 17 17 17 17 17 16 16 15 16 17 16 16 19 18 18 17 20 19 17 14 16 19 22 24 22 23 23 16 16 14 10 12 10 7 5 5 5
15 14 16 18 19 18 19 17 17 16 17 17 17 17 16 15 16 17 17 17 19 22 21 20 19 19 17 18 18 18 21 18 20 14 18 16 16 15 17 14 14 7 4
15 17 18 18 20 20 20 20 19 17 17 16 16 19 18 18 16 17 13 14 17 22 20 19 18 19 18 22 19 16 16 16 9 18 18 16 17 20 17 11 8 9 3
18 19 18 18 19 20 20 20 18 16 17 14 18 16 20 20 20 17 14 11 17 14 14 16 18 20 18 25 21 16 16 14 10 6 5 9 16 18 25 16 14 12 5
18 18 18 18 19 19 19 18 19 17 17 17 17 17 19 18 18 20 17 14 13 12 12 11 10 17 17 25 28 17 19 12 15 12 9 7 7 10 10 5 10 12 8
17 18 18 18 15 15 19 18 18 16 16 17 16 15 14 14 13 16 18 20 20 15 15 10 10 17 19 25 24 26 19 15 9 9 9 9 10 9 8 8 7 5 4
17 17 15 17 16 16 17 17 15 14 12 13 12 13 14 12 12 13 19 21 20 16 14 14 13 18 23 23 28 24 17 11 11 10 11 10 10 10 10 9 7 8 7
16 17 15 16 18 17 14 14 14 13 13 13 12 13 13 12 11 9 8 9 13 13 14 11 10 13 17 16 8 10 10 11 12 13 12 9 9 9 9 9 8 8 5
15 14 14 13 16 16 15 14 14 15 17 17 14 13 14 14 12 17 16 12 10 11 6 4 5 5 7 6 7 9 8 8 10 10 9 11 9 10 8 10 9 9 6
14 13 12 12 14 13 14 16 22 28 31 31 30 22 13 22 26 26 25 23 24 23 7 9 9 9 9 9 9 9 9 12 10 10 11 11 12 13 11 10 10 10 10
13 14 12 13 12 13 14 14 17 19 29 28 31 32 32 31 31 30 27 23 22 18 10 9 8 8 8 8 10 11 11 11 10 10 10 11 11 11 15 12 12 12 10
12 15 12 11 12 12 13 14 13 14 16 15 22 28 32 36 33 29 26 20 9 6 7 8 7 6 7 8 8 9 8 8 9 10 10 11 12 13 13 13 13 13 12
11 10 11 11 11 14 12 12 12 13 13 14 14 20 25 34 30 30 31 14 8 5 5 8 4 4 6 5 5 6 7 8 9 10 10 11 12 13 14 13 14 17 15
9 14 13 10 10 12 12 13 12 12 13 13 13 14 16 18 17 16 15 14 12 12 13 9 4 4 5 5 6 7 8 9 9 10 11 11 11 12 13 14 14 14 13
9 9 14 9 9 10 11 12 12 12 12 12 12 15 33 13 13 14 14 14 14 13 12 12 14 6 3 5 6 7 8 9 10 10 10 10 11 11 10 11 12 12 13
9 9 9 9 9 10 11 10 11 12 12 13 13 14 30 13 13 13 13 14 14 13 12 12 11 11 11 10 5 6 7 8 8 9 9 10 10 10 10 11 11 11 12
8 10 9 8 9 12 10 10 10 11 12 12 13 13 14 13 13 13 14 14 14 14 13 13 13 13 13 11 11 10 5 5 6 7 8 9 9 11 11 11 12 12 12
8 9 9 9 8 9 9 10 10 12 12 12 12 12 12 13 13 14 14 14 14 14 14 13 13 17 15 14 12 11 9 7 4 2 8 8 9 11 10 11 11 13 11
7 8 8 8 8 8 9 10 10 11 10 10 11 11 12 12 12 13 12 13 13 14 16 15 13 17 18 19 18 17 15 15 9 5 2 5 8 11 10 9 10 10 11
7 7 7 7 7 8 8 9 9 10 10 10 10 10 11 11 11 12 12 14 13 13 16 13 16 23 20 15 17 20 19 13 8 9 5 4 7 7 7 9 12 9 12
Wind_Direction
359 345 341 332 324 289 261 254 248 245 242 238 231 224 220 219 218 217 220 224 223 225 225 225 227 223 225 222 218 221 224 223 240 251 231 193 189 172 186 164 161 154 172
349 342 340 336 335 324 307 286 270 257 250 244 238 231 226 224 215 217 220 222 225 225 224 225 228 222 225 223 221 219 220 222 230 242 234 194 191 192 174 167 174 167 166
344 341 340 342 341 335 326 315 303 287 267 254 244 240 236 229 223 221 221 223 225 229 227 224 227 222 223 218 220 219 217 219 222 231 234 140 150 154 133 138 164 170 163
337 338 336 337 337 336 327 323 316 309 297 280 259 249 242 237 230 225 226 226 227 229 227 226 227 224 223 221 220 219 217 219 223 223 224 168 157 182 117 147 167 189 170
332 333 333 328 334 330 328 327 322 315 305 297 287 269 256 243 236 229 226 228 226 229 231 230 229 227 225 223 217 214 211 211 210 218 194 157 164 169 191 172 183 139 209
326 328 327 335 332 328 327 325 321 315 312 303 293 280 269 257 243 229 225 226 232 232 236 232 229 221 224 218 217 216 215 206 210 214 212 212 191 181 154 167 148 148 201
326 325 332 333 324 324 321 320 317 318 314 305 296 287 277 271 261 240 236 240 238 233 234 234 230 224 215 221 222 220 216 210 211 199 212 205 191 187 159 163 170 159 180
323 326 333 327 322 322 319 318 317 315 313 308 300 292 284 277 272 263 233 238 247 244 238 235 232 228 215 211 219 219 224 221 217 207 212 209 207 186 185 183 179 135 72
333 336 329 325 320 320 318 318 315 308 306 303 299 295 287 280 274 271 253 253 247 245 244 240 234 229 216 197 210 214 215 223 223 220 216 204 186 172 160 130 149 151 137
336 329 325 319 316 312 310 308 308 300 299 301 296 288 283 281 278 269 268 268 255 250 246 245 226 230 207 193 207 209 211 213 181 158 152 160 161 169 171 176 161 171 133
326 323 319 317 312 306 304 303 300 302 300 300 298 297 293 284 282 279 266 263 263 259 244 237 233 222 213 195 205 204 211 189 196 184 160 150 150 158 168 160 172 166 154
324 320 318 315 312 307 305 307 299 298 297 301 300 299 301 298 278 270 264 259 268 266 258 251 229 212 214 206 206 212 204 167 163 169 167 171 163 169 168 155 141 111 96
324 319 317 317 315 312 308 308 304 298 296 298 300 301 302 305 300 272 268 271 267 265 268 265 229 206 213 217 214 208 172 166 166 174 181 181 180 161 141 124 111 102 90
323 322 324 326 323 318 312 313 313 306 301 298 298 298 301 302 300 297 273 274 275 273 271 266 233 225 219 220 200 181 183 178 178 187 183 167 143 155 155 152 147 146 129
325 325 331 328 325 321 318 315 311 307 306 304 294 292 296 294 293 290 289 289 281 271 257 245 220 208 209 193 187 183 177 173 180 173 163 160 163 162 157 162 152 156 159
326 330 334 332 328 326 322 320 320 318 317 314 304 288 284 287 293 293 284 279 276 272 243 251 243 224 211 197 191 186 188 187 185 173 170 168 165 167 163 166 161 171 172
328 327 328 337 329 332 330 328 327 329 330 333 339 351 355 345 335 326 303 282 277 270 244 256 251 234 220 202 199 195 194 192 173 173 172 171 168 170 164 170 171 172 173
331 333 328 333 330 331 331 331 331 334 333 335 340 348 348 345 339 335 321 304 286 251 246 255 261 241 228 216 207 195 187 176 177 174 175 176 173 171 174 178 178 176 169
334 333 332 332 333 330 330 332 337 338 336 334 336 348 353 350 353 358 359 345 297 260 250 257 254 227 222 213 201 190 190 185 181 180 183 180 179 177 183 181 176 177 168
330 329 334 336 339 337 334 335 336 341 340 340 343 345 352 352 2 359 356 353 355 354 346 309 259 229 219 211 202 194 188 187 189 190 191 188 187 187 186 182 176 169 167
325 330 336 336 345 342 334 336 332 335 341 341 342 343 359 358 358 358 355 353 350 349 345 342 338 300 239 229 219 210 208 202 199 198 196 188 180 188 182 180 172 165 156
329 331 332 342 337 342 334 334 334 335 341 342 339 345 355 356 357 359 356 354 350 348 347 345 345 344 349 327 258 222 216 217 212 203 197 182 173 175 165 157 154 150 144
333 331 332 337 338 335 334 335 337 338 344 340 341 345 351 352 353 357 353 350 349 351 352 353 355 355 350 346 348 343 300 239 208 187 175 171 164 160 155 153 150 151 146
333 331 330 334 335 334 334 332 335 339 342 339 342 345 346 346 350 347 352 348 346 349 351 354 358 356 354 356 353 353 351 354 7 177 171 166 162 158 152 150 153 151 151
327 327 328 328 331 331 330 332 335 336 336 336 340 340 340 341 342 344 350 345 343 345 346 348 355 353 0 356 355 358 359 3 7 40 84 140 149 150 144 143 141 144 144
320 320 320 322 325 326 327 326 328 329 331 332 333 334 334 335 336 340 343 341 341 341 341 341 347 351 354 354 352 354 351 360 17 19 33 96 128 119 118 128 142 141 148